Location: Reeth
(54.3881°N, 1.9432°W)
Time: 09:28:47
(UTC+01:00)

X-37B - Visible Passes

Search period start: 04 August 2020 00:00
Search period end: 14 August 2020 00:00
Orbit: 384 x 389 km, 45.0° (Epoch: 29 July)

Date Brightness Start Highest point End Pass type
(mag) Time Alt. Az. Time Alt. Az. Time Alt. Az.
08 Aug ? 21:52:29 10° S 21:53:05 10° SSE 21:53:38 10° SSE visible
09 Aug ? 22:28:41 10° SSW 22:30:11 14° S 22:30:11 14° S visible
10 Aug ? 21:30:43 10° SSW 21:32:16 13° SSE 21:33:48 10° SE visible
10 Aug ? 23:06:10 10° SW 23:06:32 11° SW 23:06:32 11° SW visible
11 Aug ? 22:07:48 10° SW 22:09:47 16° S 22:10:30 15° SSE visible
12 Aug ? 22:45:38 10° SW 22:46:40 13° SSW 22:46:40 13° SSW visible
13 Aug ? 21:47:04 10° SW 21:49:00 15° S 21:50:31 12° SSE visible
